• en France
  • Liste des pays
  • À 7 jours
  • Température de l'eau
  • Carte satellitaire
  • Carte météo
  • Widgets météo
  • user-avatar
    Se connecter

    Météo par heure à Ganja

    Ce jour, 23 Octobre, Mardi

    Heure Température Précipitation Vent Pression Humidité
    00:00 +17°C° 0 mm 2 m/s 726 mmHg 64%
    01:00 +17°C° 0 mm 3 m/s 726 mmHg 64%
    02:00 +17°C° 0 mm 3 m/s 726 mmHg 65%
    03:00 +17°C° 0 mm 3 m/s 726 mmHg 68%
    04:00 +17°C° 0 mm 3 m/s 726 mmHg 69%
    05:00 +16°C° 0 mm 3 m/s 726 mmHg 69%
    06:00 +16°C° 0 mm 3 m/s 726 mmHg 69%
    07:00 +17°C° 0 mm 3 m/s 726 mmHg 63%
    08:00 +19°C° 0 mm 3 m/s 726 mmHg 57%
    09:00 +20°C° 0 mm 3 m/s 726 mmHg 51%
    10:00 +21°C° 0 mm 3 m/s 726 mmHg 48%
    11:00 +22°C° 0 mm 3 m/s 726 mmHg 44%
    12:00 +24°C° 0 mm 3 m/s 726 mmHg 40%
    13:00 +24°C° 0 mm 3 m/s 725 mmHg 40%
    14:00 +24°C° 0 mm 2 m/s 725 mmHg 39%
    15:00 +25°C° 0 mm 2 m/s 725 mmHg 39%
    16:00 +23°C° 0 mm 2 m/s 725 mmHg 43%
    17:00 +22°C° 0 mm 1 m/s 725 mmHg 47%
    18:00 +20°C° 0 mm 1 m/s 725 mmHg 51%
    19:00 +20°C° 0 mm 1 m/s 725 mmHg 51%
    20:00 +19°C° 0 mm 1 m/s 725 mmHg 50%
    21:00 +19°C° 0 mm 1 m/s 725 mmHg 50%
    22:00 +19°C° 0 mm 1 m/s 725 mmHg 50%
    23:00 +18°C° 0 mm 1 m/s 725 mmHg 51%

    Demain, 24 Octobre, Mercredi

    Heure Température Précipitation Vent Pression Humidité
    00:00 +18°C° 0 mm 1 m/s 725 mmHg 51%
    01:00 +16°C° 0 mm 1 m/s 725 mmHg 52%
    02:00 +16°C° 0 mm 1 m/s 724 mmHg 53%
    03:00 +15°C° 0 mm 1 m/s 724 mmHg 54%
    04:00 +15°C° 0 mm 1 m/s 724 mmHg 53%
    05:00 +15°C° 0 mm 2 m/s 724 mmHg 53%
    06:00 +15°C° 0 mm 2 m/s 724 mmHg 53%
    07:00 +17°C° 0 mm 2 m/s 723 mmHg 49%
    08:00 +18°C° 0 mm 2 m/s 723 mmHg 44%
    09:00 +20°C° 0 mm 2 m/s 723 mmHg 40%
    10:00 +21°C° 0 mm 2 m/s 723 mmHg 38%
    11:00 +23°C° 0 mm 2 m/s 722 mmHg 36%
    12:00 +24°C° 0 mm 3 m/s 721 mmHg 35%
    13:00 +24°C° 0 mm 3 m/s 721 mmHg 34%
    14:00 +24°C° 0 mm 3 m/s 720 mmHg 34%
    15:00 +25°C° 0 mm 3 m/s 719 mmHg 33%
    16:00 +23°C° 0 mm 2 m/s 719 mmHg 36%
    17:00 +21°C° 0 mm 2 m/s 719 mmHg 40%
    18:00 +21°C° 0 mm 1 m/s 719 mmHg 43%
    19:00 +21°C° 0 mm 1 m/s 719 mmHg 43%
    20:00 +19°C° 0 mm 2 m/s 719 mmHg 44%
    21:00 +19°C° 0 mm 2 m/s 719 mmHg 44%
    22:00 +19°C° 0 mm 2 m/s 719 mmHg 46%
    23:00 +19°C° 0 mm 2 m/s 718 mmHg 47%

    Après-demain, 25 Octobre, Jeudi

    Heure Température Précipitation Vent Pression Humidité
    00:00 +18°C° 0 mm 2 m/s 718 mmHg 49%
    01:00 +18°C° 0 mm 2 m/s 718 mmHg 50%
    02:00 +18°C° 0 mm 3 m/s 718 mmHg 51%
    03:00 +17°C° 0 mm 3 m/s 717 mmHg 53%
    04:00 +17°C° 0 mm 3 m/s 717 mmHg 54%
    05:00 +17°C° 0 mm 3 m/s 717 mmHg 55%
    06:00 +17°C° 0 mm 3 m/s 716 mmHg 56%
    07:00 +18°C° 0 mm 3 m/s 716 mmHg 50%
    08:00 +20°C° 0 mm 3 m/s 716 mmHg 45%
    09:00 +22°C° 0 mm 3 m/s 716 mmHg 39%
    10:00 +23°C° 0 mm 4 m/s 716 mmHg 36%
    11:00 +26°C° 0 mm 4 m/s 715 mmHg 33%
    12:00 +27°C° 0 mm 5 m/s 714 mmHg 30%
    13:00 +27°C° 0 mm 4 m/s 714 mmHg 30%
    14:00 +27°C° 0 mm 4 m/s 713 mmHg 29%
    15:00 +27°C° 0 mm 4 m/s 712 mmHg 29%
    16:00 +26°C° 0 mm 4 m/s 712 mmHg 32%
    17:00 +25°C° 0 mm 3 m/s 713 mmHg 36%
    18:00 +22°C° 0 mm 3 m/s 713 mmHg 39%
    19:00 +22°C° 0 mm 3 m/s 713 mmHg 40%
    20:00 +21°C° 0 mm 3 m/s 713 mmHg 41%
    21:00 +21°C° 0 mm 3 m/s 714 mmHg 42%
    22:00 +19°C° 0 mm 4 m/s 714 mmHg 47%
    23:00 +17°C° 0 mm 5 m/s 714 mmHg 51%

    26 Octobre, Vendredi

    Heure Température Précipitation Vent Pression Humidité
    00:00 +16°C° 0 mm 5 m/s 715 mmHg 56%
    01:00 +15°C° 0 mm 5 m/s 715 mmHg 57%
    02:00 +15°C° 0 mm 6 m/s 715 mmHg 58%
    03:00 +14°C° 0 mm 6 m/s 715 mmHg 59%
    04:00 +14°C° 0 mm 6 m/s 716 mmHg 59%
    05:00 +13°C° 0 mm 6 m/s 716 mmHg 59%
    06:00 +13°C° 0 mm 6 m/s 717 mmHg 59%
    07:00 +13°C° 0.8 mm 6 m/s 717 mmHg 61%
    08:00 +11°C° 0.8 mm 6 m/s 718 mmHg 64%
    09:00 +11°C° 0.8 mm 6 m/s 718 mmHg 66%
    10:00 +11°C° 1.1 mm 6 m/s 719 mmHg 68%
    11:00 +10°C° 1.1 mm 6 m/s 719 mmHg 69%
    12:00 +10°C° 1.1 mm 5 m/s 719 mmHg 71%
    13:00 +10°C° 1.1 mm 5 m/s 719 mmHg 69%
    14:00 +10°C° 1.1 mm 5 m/s 720 mmHg 68%
    15:00 +10°C° 1.1 mm 5 m/s 720 mmHg 67%
    16:00 +10°C° 0.4 mm 5 m/s 721 mmHg 65%
    17:00 +10°C° 0.4 mm 5 m/s 722 mmHg 64%
    18:00 +12°C° 0.4 mm 5 m/s 723 mmHg 63%
    19:00 +10°C° 0.1 mm 5 m/s 723 mmHg 62%
    20:00 +10°C° 0.1 mm 5 m/s 724 mmHg 61%
    21:00 +11°C° 0.1 mm 4 m/s 725 mmHg 60%
    22:00 +11°C° 0 mm 4 m/s 725 mmHg 60%
    23:00 +10°C° 0 mm 4 m/s 725 mmHg 61%

    27 Octobre, Samedi

    Heure Température Précipitation Vent Pression Humidité
    00:00 +8°C° 0 mm 4 m/s 726 mmHg 61%
    01:00 +8°C° 0 mm 4 m/s 726 mmHg 61%
    02:00 +8°C° 0 mm 4 m/s 727 mmHg 60%
    03:00 +8°C° 0 mm 4 m/s 727 mmHg 60%
    04:00 +8°C° 0 mm 4 m/s 728 mmHg 60%
    05:00 +8°C° 0 mm 4 m/s 729 mmHg 59%
    06:00 +7°C° 0 mm 4 m/s 729 mmHg 59%
    07:00 +10°C° 0 mm 4 m/s 730 mmHg 57%
    08:00 +11°C° 0 mm 4 m/s 730 mmHg 56%
    09:00 +13°C° 0 mm 4 m/s 731 mmHg 55%
    10:00 +14°C° 0 mm 4 m/s 731 mmHg 53%
    11:00 +15°C° 0 mm 4 m/s 731 mmHg 51%
    12:00 +17°C° 0 mm 3 m/s 731 mmHg 48%
    13:00 +17°C° 0 mm 3 m/s 731 mmHg 48%
    14:00 +17°C° 0 mm 2 m/s 731 mmHg 47%
    15:00 +17°C° 0 mm 2 m/s 731 mmHg 47%
    16:00 +16°C° 0 mm 2 m/s 732 mmHg 48%
    17:00 +15°C° 0 mm 2 m/s 732 mmHg 50%
    18:00 +14°C° 0 mm 2 m/s 733 mmHg 52%
    19:00 +13°C° 0 mm 2 m/s 733 mmHg 53%
    20:00 +13°C° 0 mm 2 m/s 734 mmHg 54%
    21:00 +13°C° 0 mm 2 m/s 734 mmHg 54%
    22:00 +12°C° 0 mm 2 m/s 734 mmHg 56%
    23:00 +12°C° 0 mm 2 m/s 734 mmHg 58%

    28 Octobre, Dimanche

    Heure Température Précipitation Vent Pression Humidité
    00:00 +10°C° 0 mm 2 m/s 734 mmHg 60%
    01:00 +10°C° 0 mm 2 m/s 734 mmHg 62%
    02:00 +10°C° 0 mm 1 m/s 734 mmHg 63%
    03:00 +10°C° 0 mm 1 m/s 734 mmHg 64%
    04:00 +10°C° 0 mm 1 m/s 734 mmHg 63%
    05:00 +10°C° 0 mm 1 m/s 734 mmHg 62%
    06:00 +10°C° 0 mm 1 m/s 734 mmHg 61%
    07:00 +11°C° 0 mm 1 m/s 734 mmHg 58%
    08:00 +12°C° 0 mm 1 m/s 734 mmHg 55%
    09:00 +14°C° 0 mm 1 m/s 734 mmHg 53%
    10:00 +14°C° 0 mm 1 m/s 734 mmHg 51%
    11:00 +15°C° 0 mm 1 m/s 734 mmHg 50%
    12:00 +16°C° 0 mm 1 m/s 733 mmHg 49%
    13:00 +16°C° 0 mm 1 m/s 733 mmHg 49%
    14:00 +18°C° 0 mm 1 m/s 733 mmHg 48%
    15:00 +18°C° 0 mm 1 m/s 732 mmHg 48%
    16:00 +16°C° 0 mm 1 m/s 733 mmHg 51%
    17:00 +15°C° 0 mm 1 m/s 733 mmHg 55%
    18:00 +14°C° 0 mm 1 m/s 733 mmHg 58%
    19:00 +14°C° 0 mm 1 m/s 733 mmHg 58%
    20:00 +13°C° 0 mm 1 m/s 733 mmHg 58%
    21:00 +13°C° 0 mm 1 m/s 733 mmHg 58%
    22:00 +13°C° 0 mm 1 m/s 733 mmHg 59%
    23:00 +12°C° 0 mm 1 m/s 733 mmHg 60%

    29 Octobre, Lundi

    Heure Température Précipitation Vent Pression Humidité
    00:00 +12°C° 0 mm 1 m/s 733 mmHg 61%
    01:00 +12°C° 0 mm 1 m/s 733 mmHg 61%
    02:00 +12°C° 0 mm 1 m/s 733 mmHg 61%
    03:00 +11°C° 0 mm 1 m/s 732 mmHg 61%
    04:00 +11°C° 0 mm 1 m/s 732 mmHg 60%
    05:00 +11°C° 0 mm 1 m/s 732 mmHg 60%
    06:00 +11°C° 0 mm 1 m/s 732 mmHg 59%
    07:00 +13°C° 0 mm 1 m/s 733 mmHg 55%
    08:00 +14°C° 0 mm 1 m/s 733 mmHg 52%
    09:00 +16°C° 0 mm 1 m/s 733 mmHg 48%
    10:00 +18°C° 0 mm 1 m/s 732 mmHg 46%
    11:00 +19°C° 0 mm 1 m/s 732 mmHg 44%
    12:00 +19°C° 0 mm 2 m/s 732 mmHg 42%
    13:00 +19°C° 0 mm 2 m/s 732 mmHg 42%
    14:00 +19°C° 0 mm 2 m/s 731 mmHg 42%
    15:00 +20°C° 0 mm 2 m/s 731 mmHg 42%
    16:00 +18°C° 0 mm 2 m/s 731 mmHg 46%
    17:00 +17°C° 0 mm 2 m/s 731 mmHg 50%
    18:00 +16°C° 0 mm 1 m/s 731 mmHg 54%
    19:00 +15°C° 0 mm 2 m/s 732 mmHg 55%
    20:00 +15°C° 0 mm 2 m/s 732 mmHg 56%
    21:00 +14°C° 0 mm 2 m/s 732 mmHg 56%
    22:00 +14°C° 0 mm 1 m/s 732 mmHg 57%
    23:00 +14°C° 0 mm 1 m/s 732 mmHg 58%
    Voir plus